Flag for U.S.A. Weather past 2 weeks in Abilene, Texas, U.S.A.

Now
85 °F

Clear.


Feels Like: 86 °F
Forecast: 74 / 93 °F
Wind: 10 mph from South

Location: Abilene Regional Airport

Current Time: Aug 22, 2014 at 1:06:36 AM

Latest Report: Aug 21, 2014 at 11:52 PM


Visibility: 10 mi

Pressure: 29.90 "Hg

Humidity: 48%

Dew point: 63 °F

Location of AbileneLocation

Historic Weather in Abilene — Graph

°F

Abilene temperature yesterday

Maximum temperature yesterday: 97 °F (at 4:52 PM)
Minimum temperature yesterday: 77 °F (at 6:52 AM)
Average temperature yesterday: 87 °F

Past Weeks' High & Low Weather Summary

 TemperatureHumidityPressure
High103 °F (Aug 7, 3:52 PM)84% (Aug 18, 7:52 AM)30.10 "Hg (Aug 18, 7:52 AM)
Low70 °F (Aug 13, 4:52 AM)18% (Aug 15, 6:52 PM)29.73 "Hg (Aug 7, 6:52 PM)
Average85 °F48%29.91 "Hg
* Reported Aug 6 11:52 PM — Aug 21 11:52 PM, Abilene, Weather by CustomWeather, © 2014

Note: Actual official high and low records may vary slightly from our data, if they occured in-between our weather recording intervals... More about our weather records

Advertising

Abilene weather history for previous 24 hours

 ConditionsComfort  
Time TempWeatherWind HumidityBarometerVisibility
11:52 PM
Aug 21
85 °FClear.10 mph48%29.90 "Hg10 mi
10:52 PM87 °FClear.12 mph45%29.91 "Hg10 mi
9:52 PM88 °FClear.12 mph42%29.90 "Hg10 mi
8:52 PM90 °FSunny.12 mph38%29.88 "Hg10 mi
7:52 PM93 °FSunny.15 mph33%29.86 "Hg10 mi
6:52 PM95 °FSunny.16 mph32%29.86 "Hg10 mi
5:52 PM96 °FSunny.16 mph35%29.86 "Hg10 mi
4:52 PM97 °FScattered clouds.17 mph35%29.86 "Hg10 mi
3:52 PM96 °FPassing clouds.20 mph38%29.87 "Hg10 mi
2:52 PM95 °FPassing clouds.22 mph41%29.88 "Hg10 mi
1:52 PM95 °FPassing clouds.21 mph44%29.90 "Hg10 mi
12:52 PM92 °FSunny.21 mph49%29.92 "Hg10 mi
11:52 AM90 °FSunny.20 mph52%29.93 "Hg10 mi
10:52 AM87 °FPassing clouds.25 mph57%29.94 "Hg10 mi
9:52 AM84 °FPassing clouds.21 mph65%29.94 "Hg10 mi
8:52 AM79 °FSunny.15 mph74%29.94 "Hg10 mi
7:52 AM77 °FClear.12 mph77%29.94 "Hg10 mi
6:52 AM77 °FClear.14 mph77%29.92 "Hg10 mi
5:52 AM78 °FPassing clouds.16 mph74%29.90 "Hg10 mi
4:52 AM79 °FClear.14 mph72%29.88 "Hg10 mi
3:52 AM80 °FClear.14 mph67%29.87 "Hg10 mi
2:52 AM81 °FClear.17 mph60%29.86 "Hg10 mi
1:52 AM83 °FClear.N/A53%29.87 "Hg10 mi
Weather by CustomWeather, © 2014

See weather overviewHow to use our weather pages